Location: Star Hoppers Observatory
(42.7905°N, 83.6127°W)
Time: 02:50:06
(UTC-05:00)

NOSS 3-1 (A) - Visible Passes

Search period start: 30 January 2015 00:00
Search period end: 09 February 2015 00:00
Orbit: 889 x 1323 km, 63.4° (Epoch: 23 January)

Date Brightness Start Highest point End Pass type
(mag) Time Alt. Az. Time Alt. Az. Time Alt. Az.
30 Jan 5.8 04:40:14 14° N 04:42:15 15° NNE 04:46:25 10° NE visible
30 Jan 5.2 06:29:05 10° NNW 06:35:38 34° NE 06:42:47 10° ESE visible
31 Jan 6.0 03:56:54 14° N 03:56:54 14° N 04:00:12 10° NE visible
31 Jan 5.6 05:44:32 10° NNW 05:50:25 26° NNE 05:56:51 10° E visible
01 Feb 6.3 03:13:35 11° NNE 03:13:35 11° NNE 03:14:24 10° NNE visible
01 Feb 5.8 05:01:02 13° NNW 05:05:04 20° NNE 05:10:38 10° ENE visible
01 Feb 4.6 06:50:24 10° NNW 06:57:43 58° NE 07:05:39 10° SE visible
02 Feb 5.8 04:17:43 15° N 04:19:36 17° NNE 04:24:17 10° NE visible
02 Feb 5.0 06:05:50 10° NNW 06:12:44 41° NE 06:20:15 10° ESE visible
03 Feb 6.0 03:34:26 14° NNE 03:34:26 14° NNE 03:37:56 10° NE visible
03 Feb 5.4 05:21:53 12° NNW 05:27:36 31° NE 05:34:29 10° E visible
03 Feb 4.1 07:11:52 10° NW 07:19:26 82° WSW 07:27:34 10° SSE visible
04 Feb 6.4 02:51:11 11° NNE 02:51:11 11° NNE 02:51:51 10° NNE visible
04 Feb 5.7 04:38:38 16° N 04:42:19 24° NNE 04:48:26 10° E visible
04 Feb 4.3 06:27:11 10° NNW 06:34:40 71° NE 06:42:45 10° SE visible
05 Feb 5.8 03:55:25 18° N 03:56:56 19° NNE 04:02:09 10° ENE visible
05 Feb 4.7 05:42:52 11° NNW 05:49:45 51° NE 05:57:34 10° ESE visible
06 Feb 6.1 03:12:15 15° NNE 03:12:15 15° NNE 03:15:46 10° NE visible
06 Feb 5.1 04:59:42 17° NNW 05:04:43 37° NE 05:12:01 10° ESE visible
06 Feb 4.1 06:48:45 10° NW 06:56:15 66° WSW 07:04:17 10° SSE visible
07 Feb 6.4 02:29:08 11° NE 02:29:08 11° NE 02:29:29 10° NE visible
07 Feb 5.5 04:16:36 22° N 04:19:32 28° NNE 04:26:08 10° E visible
07 Feb 4.0 06:04:03 10° NW 06:11:33 87° NE 06:19:43 10° SE visible
08 Feb 5.7 03:33:33 21° NNE 03:34:13 22° NNE 03:39:59 10° ENE visible
08 Feb 4.4 05:21:00 18° NNW 05:26:44 62° NE 05:34:45 10° SE visible
08 Feb 4.7 07:10:47 10° NW 07:17:35 34° WSW 07:24:36 10° S visible
